Notices

What's New in latest Release from April 7th, 2021:

- Updated Glossary, including Speed of Maximum Gust, and Total Hourly Precipitation

- Updated national and regional climate services offices contacts and prices information

- Addition of station inventory lists for 1981-2010, 1971-2000, and 1961-1990 Normals.

If you haven't already, please take our survey and provide feedback about our website: https://eccc.sondage-survey.ca/f/LanguageSelection.aspx?s=442ca660-fcf1-47c0-95a9-59707d6fd709

Hourly Data Report for August 02, 2004

SHERBROOKE A
QUEBEC

45°26'00.000" N
71°41'00.000" W
241.40 m
7028124
71610
YSC

Download Data

Hourly Data (August 2004)
Hourly Data Report for August 2, 2004
TIME
LST
Temp Definition
°C
Dew Point Definition
°C
Rel Hum Definition
%
Precip. Amount Definition
mm

Wind Dir Definition
10's deg

Wind Spd Definition
km/h
Visibility Definition
km
Stn Press Definition
kPa
Hmdx Definition


Wind Chill Definition


Weather Definition


00:00 16.4 14.5 89   22 7 15.0 98.69      
01:00 14.5 13.2 92   23 4 15.0 98.68      
02:00 13.5 12.9 96     0 11.3 98.69      
03:00 12.5 12.0 97     0 1.8 98.69      
04:00 12.2 11.6 96   13 4 4.8 98.70      
05:00 12.3 12.0 98     0 9.7 98.75      
06:00 15.8 14.3 91     0 15.0 98.77      
07:00 16.8 15.1 90     0 24.1 98.77     Mainly Clear
08:00 20.4 16.7 79   24 9 24.1 98.77 25   Mostly Cloudy
09:00 21.2 16.7 76   22 7 24.1 98.72 26   Mostly Cloudy
10:00 23.6 16.4 64   21 7 24.1 98.69 28   Mostly Cloudy
11:00 24.0 15.3 58   23 9 24.1 98.66 28   Mostly Cloudy
12:00 24.8 17.0 62   27 13 24.1 98.63 30   Mostly Cloudy
13:00 25.9 16.8 57   26 11 24.1 98.57 31   Mostly Cloudy
14:00 26.5 17.0 56   27 15 24.1 98.54 32   Mostly Cloudy
15:00 26.1 16.2 54   25 13 24.1 98.49 31   Mostly Cloudy
16:00 26.2 16.4 55   25 13 24.1 98.48 31   Mostly Cloudy
17:00 25.7 16.4 56   24 13 15.0 98.45 31    
18:00 24.8 16.4 60   22 6 15.0 98.41 30    
19:00 22.5 17.2 72   20 6 15.0 98.41 28    
20:00 19.9 16.7 82   20 4 15.0 98.42      
21:00 18.0 16.4 90   14 6 15.0 98.38      
22:00 17.0 15.8 93     0 11.3 98.33      
23:00 16.4 15.3 93   10 4 11.3 98.32      

Notes on Data Quality.

Legend

  • E = Estimated
  • M = Missing
  • NA = Not Available*
  • [empty] = Indicates an unobserved value
Date modified: